• In Kazakhstan
  • List of Countries
  • For 7 days
  • Water Temperature
  • Weather Map
  • News
  • Weather Widgets
  • user-avatar
    Login

    Hourly Weather Maun

    Today, 5 June, Friday

    Time Temperature Precipitation Wind Pressure Humidity
    00:00 +18°C° 0 mm 2 mps 684 mmHg 36%
    01:00 +18°C° 0 mm 2 mps 684 mmHg 38%
    02:00 +17°C° 0 mm 2 mps 684 mmHg 40%
    03:00 +16°C° 0 mm 2 mps 684 mmHg 46%
    04:00 +15°C° 0 mm 2 mps 684 mmHg 53%
    05:00 +14°C° 0 mm 2 mps 683 mmHg 59%
    06:00 +14°C° 0 mm 2 mps 684 mmHg 59%
    07:00 +15°C° 0 mm 2 mps 685 mmHg 59%
    08:00 +15°C° 0 mm 2 mps 685 mmHg 59%
    09:00 +18°C° 0 mm 2 mps 686 mmHg 48%
    10:00 +23°C° 0 mm 2 mps 686 mmHg 38%
    11:00 +26°C° 0 mm 3 mps 687 mmHg 27%
    12:00 +27°C° 0 mm 3 mps 686 mmHg 24%
    13:00 +29°C° 0 mm 2 mps 686 mmHg 20%
    14:00 +30°C° 0 mm 2 mps 685 mmHg 16%
    15:00 +29°C° 0 mm 3 mps 685 mmHg 17%
    16:00 +28°C° 0 mm 3 mps 684 mmHg 17%
    17:00 +28°C° 0 mm 4 mps 684 mmHg 17%
    18:00 +25°C° 0 mm 3 mps 684 mmHg 23%
    19:00 +21°C° 0 mm 3 mps 684 mmHg 28%
    20:00 +18°C° 0 mm 3 mps 685 mmHg 33%
    21:00 +18°C° 0 mm 3 mps 685 mmHg 36%
    22:00 +17°C° 0 mm 2 mps 685 mmHg 39%
    23:00 +16°C° 0 mm 2 mps 685 mmHg 42%

    Tomorrow, 6 June, Saturday

    Time Temperature Precipitation Wind Pressure Humidity
    00:00 +16°C° 0 mm 2 mps 685 mmHg 43%
    01:00 +15°C° 0 mm 2 mps 685 mmHg 44%
    02:00 +15°C° 0 mm 2 mps 685 mmHg 45%
    03:00 +14°C° 0 mm 2 mps 685 mmHg 51%
    04:00 +13°C° 0 mm 2 mps 685 mmHg 56%
    05:00 +12°C° 0 mm 2 mps 684 mmHg 62%
    06:00 +13°C° 0 mm 2 mps 685 mmHg 63%
    07:00 +14°C° 0 mm 2 mps 685 mmHg 65%
    08:00 +14°C° 0 mm 2 mps 686 mmHg 67%
    09:00 +18°C° 0 mm 3 mps 686 mmHg 55%
    10:00 +21°C° 0 mm 3 mps 687 mmHg 44%
    11:00 +25°C° 0 mm 3 mps 688 mmHg 33%
    12:00 +26°C° 0 mm 3 mps 687 mmHg 28%
    13:00 +27°C° 0 mm 3 mps 687 mmHg 24%
    14:00 +28°C° 0 mm 3 mps 686 mmHg 19%
    15:00 +28°C° 0 mm 3 mps 686 mmHg 20%
    16:00 +27°C° 0 mm 3 mps 685 mmHg 21%
    17:00 +27°C° 0 mm 3 mps 685 mmHg 22%
    18:00 +24°C° 0 mm 3 mps 685 mmHg 27%
    19:00 +20°C° 0 mm 3 mps 685 mmHg 31%
    20:00 +18°C° 0 mm 3 mps 685 mmHg 36%
    21:00 +17°C° 0 mm 3 mps 685 mmHg 37%
    22:00 +16°C° 0 mm 3 mps 685 mmHg 39%
    23:00 +15°C° 0 mm 2 mps 685 mmHg 41%

    Day after tomorrow, 7 June, Sunday

    Time Temperature Precipitation Wind Pressure Humidity
    00:00 +14°C° 0 mm 2 mps 685 mmHg 43%
    01:00 +13°C° 0 mm 3 mps 685 mmHg 44%
    02:00 +12°C° 0 mm 3 mps 685 mmHg 46%
    03:00 +11°C° 0 mm 3 mps 684 mmHg 50%
    04:00 +10°C° 0 mm 2 mps 684 mmHg 54%
    05:00 +9°C° 0 mm 2 mps 684 mmHg 58%
    06:00 +10°C° 0 mm 2 mps 685 mmHg 58%
    07:00 +10°C° 0 mm 3 mps 685 mmHg 59%
    08:00 +11°C° 0 mm 3 mps 686 mmHg 59%
    09:00 +14°C° 0 mm 3 mps 686 mmHg 49%
    10:00 +19°C° 0 mm 3 mps 687 mmHg 40%
    11:00 +22°C° 0 mm 4 mps 688 mmHg 30%
    12:00 +24°C° 0 mm 3 mps 687 mmHg 26%
    13:00 +26°C° 0 mm 3 mps 686 mmHg 22%
    14:00 +27°C° 0 mm 3 mps 686 mmHg 18%
    15:00 +26°C° 0 mm 3 mps 685 mmHg 18%
    16:00 +26°C° 0 mm 3 mps 685 mmHg 19%
    17:00 +26°C° 0 mm 3 mps 685 mmHg 19%
    18:00 +22°C° 0 mm 3 mps 684 mmHg 25%
    19:00 +19°C° 0 mm 3 mps 684 mmHg 30%
    20:00 +16°C° 0 mm 3 mps 684 mmHg 36%
    21:00 +15°C° 0 mm 2 mps 684 mmHg 38%
    22:00 +15°C° 0 mm 2 mps 684 mmHg 41%
    23:00 +14°C° 0 mm 2 mps 684 mmHg 44%

    8 June, Monday

    Time Temperature Precipitation Wind Pressure Humidity
    00:00 +14°C° 0 mm 2 mps 684 mmHg 49%
    01:00 +14°C° 0 mm 2 mps 684 mmHg 55%
    02:00 +12°C° 0 mm 3 mps 683 mmHg 61%
    03:00 +12°C° 0 mm 3 mps 683 mmHg 69%
    04:00 +11°C° 0 mm 3 mps 683 mmHg 77%
    05:00 +11°C° 0 mm 3 mps 683 mmHg 84%
    06:00 +11°C° 0 mm 3 mps 684 mmHg 82%
    07:00 +12°C° 0 mm 3 mps 684 mmHg 79%
    08:00 +12°C° 0 mm 3 mps 685 mmHg 77%
    09:00 +16°C° 0 mm 3 mps 685 mmHg 63%
    10:00 +20°C° 0 mm 3 mps 686 mmHg 50%
    11:00 +24°C° 0 mm 3 mps 686 mmHg 37%
    12:00 +25°C° 0 mm 3 mps 686 mmHg 32%
    13:00 +27°C° 0 mm 3 mps 685 mmHg 28%
    14:00 +28°C° 0 mm 3 mps 684 mmHg 23%
    15:00 +28°C° 0 mm 3 mps 684 mmHg 23%
    16:00 +27°C° 0 mm 3 mps 684 mmHg 23%
    17:00 +27°C° 0 mm 3 mps 683 mmHg 24%
    18:00 +24°C° 0 mm 3 mps 683 mmHg 28%
    19:00 +20°C° 0 mm 3 mps 683 mmHg 32%
    20:00 +17°C° 0 mm 3 mps 683 mmHg 37%
    21:00 +16°C° 0 mm 3 mps 683 mmHg 37%
    22:00 +16°C° 0 mm 2 mps 683 mmHg 38%
    23:00 +15°C° 0 mm 2 mps 683 mmHg 39%

    9 June, Tuesday

    Time Temperature Precipitation Wind Pressure Humidity
    00:00 +15°C° 0 mm 2 mps 683 mmHg 38%
    01:00 +14°C° 0 mm 2 mps 683 mmHg 37%
    02:00 +14°C° 0 mm 2 mps 683 mmHg 37%
    03:00 +13°C° 0 mm 2 mps 683 mmHg 40%
    04:00 +12°C° 0 mm 2 mps 683 mmHg 43%
    05:00 +12°C° 0 mm 2 mps 683 mmHg 46%
    06:00 +11°C° 0 mm 3 mps 683 mmHg 48%
    07:00 +11°C° 0 mm 3 mps 683 mmHg 49%
    08:00 +12°C° 0 mm 3 mps 684 mmHg 51%
    09:00 +17°C° 0 mm 3 mps 684 mmHg 42%
    10:00 +20°C° 0 mm 3 mps 685 mmHg 32%
    11:00 +25°C° 0 mm 3 mps 685 mmHg 23%
    12:00 +26°C° 0 mm 3 mps 685 mmHg 21%
    13:00 +28°C° 0 mm 3 mps 684 mmHg 19%
    14:00 +29°C° 0 mm 2 mps 684 mmHg 17%
    15:00 +28°C° 0 mm 2 mps 683 mmHg 17%
    16:00 +28°C° 0 mm 2 mps 683 mmHg 17%
    17:00 +28°C° 0 mm 1 mps 682 mmHg 18%
    18:00 +24°C° 0 mm 1 mps 682 mmHg 22%
    19:00 +21°C° 0 mm 1 mps 682 mmHg 27%
    20:00 +18°C° 0 mm 1 mps 682 mmHg 31%
    21:00 +16°C° 0 mm 1 mps 682 mmHg 34%
    22:00 +16°C° 0 mm 1 mps 682 mmHg 37%
    23:00 +15°C° 0 mm 2 mps 682 mmHg 40%

    10 June, Wednesday

    Time Temperature Precipitation Wind Pressure Humidity
    00:00 +14°C° 0 mm 1 mps 682 mmHg 42%
    01:00 +14°C° 0 mm 1 mps 682 mmHg 44%
    02:00 +13°C° 0 mm 1 mps 682 mmHg 46%
    03:00 +13°C° 0 mm 2 mps 682 mmHg 47%
    04:00 +12°C° 0 mm 2 mps 682 mmHg 48%
    05:00 +12°C° 0 mm 2 mps 682 mmHg 49%
    06:00 +13°C° 0 mm 2 mps 682 mmHg 47%
    07:00 +13°C° 0 mm 2 mps 683 mmHg 46%
    08:00 +14°C° 0 mm 1 mps 684 mmHg 44%
    09:00 +18°C° 0 mm 2 mps 684 mmHg 37%
    10:00 +23°C° 0 mm 2 mps 685 mmHg 29%
    11:00 +27°C° 0 mm 3 mps 685 mmHg 21%
    12:00 +28°C° 0 mm 2 mps 685 mmHg 19%
    13:00 +30°C° 0 mm 2 mps 684 mmHg 17%
    14:00 +31°C° 0 mm 1 mps 683 mmHg 14%
    15:00 +30°C° 0 mm 1 mps 683 mmHg 15%
    16:00 +29°C° 0 mm 1 mps 683 mmHg 16%
    17:00 +27°C° 0 mm 0 mps 682 mmHg 17%
    18:00 +24°C° 0 mm 0 mps 682 mmHg 21%
    19:00 +20°C° 0 mm 0 mps 682 mmHg 24%
    20:00 +17°C° 0 mm 0 mps 681 mmHg 27%
    21:00 +16°C° 0 mm 0 mps 681 mmHg 29%
    22:00 +15°C° 0 mm 0 mps 681 mmHg 32%
    23:00 +15°C° 0 mm 0 mps 681 mmHg 34%
    Show more